DW3016 Weather Reports


time (UTC)temp
C
wind
direction
speed
KPH
gust
KPH
rain 1hr
cm
rain 24hr
cm
rain mn
cm
humidity
%
barometer
mb
20260504173536 27 292 4.8 24.1 0.00 0.00 0.00 32 1000.2
20260504173033 27 223 3.2 9.7 0.00 0.00 0.00 34 1000.2
20260504172529 26 96 6.4 9.7 0.00 0.00 0.00 34 1000.2
20260504172026 26 280 9.7 12.9 0.00 0.00 0.00 33 1000.2
20260504171523 27 43 1.6 9.7 0.00 0.00 0.00 33 1000.2
20260504171020 27 240 1.6 6.4 0.00 0.00 0.00 33 1000.4
20260504170516 27 315 3.2 4.8 0.00 0.00 0.00 33 1000.4
20260504160436 25 171 0.0 3.2 0.00 0.00 0.00 46 1000.7
20260504150900 17 155 0.0 3.2 0.00 0.00 0.00 49 1001.2
20260504150356 17 211 1.6 6.4 0.00 0.00 0.00 49 1001.2
20260504141326 19 189 1.6 4.8 0.00 0.00 0.00 52 1001.9
20260504140823 19 202 0.0 4.8 0.00 0.00 0.00 50 1001.8
20260504140319 19 183 3.2 6.4 0.00 0.00 0.00 50 1001.8
20260504130748 15 233 0.0 3.2 0.00 0.00 0.00 57 1002.1
20260504130243 15 204 0.0 3.2 0.00 0.00 0.00 58 1002.0
20260504120207 11 202 0.0 0.0 0.00 0.00 0.00 66 1002.0
20260504110634 10 207 0.0 1.6 0.00 0.00 0.00 67 1002.3
20260504110130 10 202 0.0 0.0 0.00 0.00 0.00 68 1002.2
20260504100557 10 207 0.0 1.6 0.00 0.00 0.00 64 1003.1
20260504081950 10 199 0.0 1.6 0.00 0.00 0.00 65 1004.1
20260504081448 10 196 0.0 0.0 0.00 0.00 0.00 65 1003.9
20260504080943 10 195 0.0 0.0 0.00 0.00 0.00 63 1004.2
20260504080440 10 195 0.0 0.0 0.00 0.00 0.00 63 1004.2
20260504070408 11 206 0.0 0.0 0.00 0.00 0.00 58 1005.2
20260504050253 12 195 0.0 0.0 0.00 0.00 0.00 53 1006.5
20260504045751 12 195 0.0 0.0 0.00 0.00 0.00 53 1006.4
20260504045250 12 194 0.0 0.0 0.00 0.00 0.00 52 1006.5
20260504044748 13 194 0.0 0.0 0.00 0.00 0.00 52 1006.7
20260504044245 12 194 0.0 0.0 0.00 0.00 0.00 52 1006.6
20260504043742 12 194 0.0 0.0 0.00 0.00 0.00 52 1006.5
20260504043239 13 194 0.0 0.0 0.00 0.00 0.00 51 1006.7
20260504042737 13 195 0.0 0.0 0.00 0.00 0.00 51 1006.8
20260504042233 13 195 0.0 0.0 0.00 0.00 0.00 50 1006.9
20260504041729 13 195 0.0 0.0 0.00 0.00 0.00 49 1006.8
20260504041225 13 194 0.0 0.0 0.00 0.00 0.00 49 1006.9
20260504040722 13 195 0.0 0.0 0.00 0.00 0.00 49 1006.8
20260504040219 13 196 0.0 0.0 0.00 0.00 0.00 48 1006.9
20260504035715 13 196 0.0 0.0 0.00 0.00 0.00 47 1007.2
20260504035213 13 196 0.0 0.0 0.00 0.00 0.00 48 1007.1
20260504034710 13 195 0.0 0.0 0.00 0.00 0.00 48 1007.1
20260504034207 13 198 0.0 0.0 0.00 0.00 0.00 46 1007.3
20260504033705 14 198 0.0 0.0 0.00 0.00 0.00 46 1007.5
20260504033202 14 198 0.0 0.0 0.00 0.00 0.00 46 1007.6
20260504032659 14 198 0.0 0.0 0.00 0.00 0.00 45 1007.3
20260504032156 15 199 0.0 0.0 0.00 0.00 0.00 44 1007.7
20260504031653 15 222 0.0 0.0 0.00 0.00 0.00 45 1007.5
20260504031149 15 221 0.0 0.0 0.00 0.00 0.00 44 1007.5
20260504030646 14 221 0.0 0.0 0.00 0.00 0.00 44 1007.7
20260504030143 15 221 0.0 0.0 0.00 0.00 0.00 44 1007.6
20260504025639 15 221 0.0 0.0 0.00 0.00 0.00 44 1007.5
20260504025136 15 222 0.0 0.0 0.00 0.00 0.00 43 1007.6
20260504024634 15 222 0.0 0.0 0.00 0.00 0.00 43 1007.6
20260504024130 15 222 0.0 0.0 0.00 0.00 0.00 43 1007.6
20260504023627 15 212 0.0 0.0 0.00 0.00 0.00 43 1007.6
20260504023123 15 212 0.0 0.0 0.00 0.00 0.00 43 1007.6
20260504022619 15 212 0.0 0.0 0.00 0.00 0.00 42 1007.5
20260504022115 15 212 0.0 0.0 0.00 0.00 0.00 42 1007.6
20260504021614 16 212 0.0 0.0 0.00 0.00 0.00 41 1007.3
20260504021110 16 212 0.0 0.0 0.00 0.00 0.00 41 1007.6
20260504020607 16 212 0.0 0.0 0.00 0.00 0.00 41 1007.4
20260504015559 16 212 0.0 0.0 0.00 0.00 0.00 41 1007.4
20260504015055 16 204 0.0 0.0 0.00 0.00 0.00 42 1007.3
20260504014552 16 204 0.0 0.0 0.00 0.00 0.00 42 1007.3
20260504014049 16 202 0.0 0.0 0.00 0.00 0.00 42 1007.5
20260504013546 17 219 0.0 0.0 0.00 0.00 0.00 41 1007.3
20260504013043 17 219 0.0 0.0 0.00 0.00 0.00 40 1007.4
20260504012541 18 219 0.0 0.0 0.00 0.00 0.00 38 1007.3
20260504012039 18 219 0.0 0.0 0.00 0.00 0.00 37 1007.3
20260504011535 18 219 0.0 0.0 0.00 0.00 0.00 36 1007.4
20260504011031 19 219 0.0 0.0 0.00 0.00 0.00 35 1007.3
20260504010527 19 219 0.0 0.0 0.00 0.00 0.00 35 1007.2
20260504010023 20 204 0.0 0.0 0.00 0.00 0.00 35 1007.5
20260504005520 20 212 0.0 0.0 0.00 0.00 0.00 34 1007.3
20260504005018 20 212 0.0 0.0 0.00 0.00 0.00 33 1007.3
20260504004515 21 201 0.0 0.0 0.00 0.00 0.00 31 1007.4
20260504004012 21 202 0.0 1.6 0.00 0.00 0.00 31 1007.4
20260504003508 21 175 0.0 1.6 0.00 0.00 0.00 30 1007.3
20260504003005 21 235 0.0 1.6 0.00 0.00 0.00 30 1007.3
20260504002502 21 271 3.2 3.2 0.00 0.00 0.00 29 1007.4
20260504001959 21 197 0.0 1.6 0.00 0.00 0.00 30 1007.4
20260504001457 21 208 0.0 1.6 0.00 0.00 0.00 30 1007.2
20260504000953 22 206 0.0 1.6 0.00 0.00 0.00 29 1007.2
20260504000450 22 195 0.0 1.6 0.00 0.00 0.00 29 1007.5
20260503235948 22 223 0.0 3.2 0.00 0.00 0.00 29 1007.3
20260503235445 22 271 3.2 4.8 0.00 0.00 0.00 28 1007.2
20260503234942 23 195 0.0 4.8 0.00 0.00 0.00 28 1007.4
20260503234440 23 34 1.6 12.9 0.00 0.00 0.00 27 1007.3
20260503233938 23 333 3.2 3.2 0.00 0.00 0.00 26 1007.4
20260503233434 24 230 1.6 4.8 0.00 0.00 0.00 25 1007.3
20260503232931 24 206 1.6 4.8 0.00 0.00 0.00 25 1007.4
20260503232428 24 231 3.2 6.4 0.00 0.00 0.00 25 1007.4
20260503231926 24 123 1.6 3.2 0.00 0.00 0.00 26 1007.4
20260503231423 24 327 0.0 4.8 0.00 0.00 0.00 25 1007.3
20260503230919 24 200 1.6 4.8 0.00 0.00 0.00 25 1007.3
20260503230415 25 186 0.0 4.8 0.00 0.00 0.00 26 1007.4
20260503225913 25 251 0.0 1.6 0.00 0.00 0.00 26 1007.4
20260503225409 25 284 3.2 4.8 0.00 0.00 0.00 26 1007.4
20260503224905 25 213 1.6 3.2 0.00 0.00 0.00 26 1007.5
20260503224402 24 273 6.4 9.7 0.00 0.00 0.00 26 1007.4
20260503223900 24 216 3.2 4.8 0.00 0.00 0.00 26 1007.5
20260503223358 24 178 1.6 11.3 0.00 0.00 0.00 27 1007.5
20260503222853 24 194 1.6 4.8 0.00 0.00 0.00 27 1007.6
20260503222352 23 224 3.2 9.7 0.00 0.00 0.00 27 1007.7
20260503221850 23 271 3.2 9.7 0.00 0.00 0.00 28 1007.6
20260503221348 23 310 1.6 4.8 0.00 0.00 0.00 28 1007.6
20260503220844 23 27 6.4 11.3 0.00 0.00 0.00 26 1007.7
20260503220341 23 226 1.6 6.4 0.00 0.00 0.00 27 1007.6
20260503215838 23 208 1.6 4.8 0.00 0.00 0.00 27 1007.7
20260503215335 23 231 4.8 11.3 0.00 0.00 0.00 27 1007.6
20260503214832 23 314 6.4 11.3 0.00 0.00 0.00 28 1007.8
20260503214330 23 285 9.7 16.1 0.00 0.00 0.00 27 1007.7
20260503213827 23 258 6.4 9.7 0.00 0.00 0.00 28 1007.9
20260503213325 23 215 3.2 9.7 0.00 0.00 0.00 26 1007.7
20260503212821 23 147 4.8 12.9 0.00 0.00 0.00 27 1007.7
20260503212319 23 241 3.2 9.7 0.00 0.00 0.00 29 1007.9
20260503211816 23 313 3.2 6.4 0.00 0.00 0.00 29 1007.8
20260503211313 23 354 4.8 6.4 0.00 0.00 0.00 28 1007.9
20260503210813 23 352 3.2 17.7 0.00 0.00 0.00 28 1008.0
20260503210311 23 245 4.8 11.3 0.00 0.00 0.00 27 1007.7
20260503205805 24 45 3.2 9.7 0.00 0.00 0.00 29 1007.9
20260503205304 23 300 4.8 6.4 0.00 0.00 0.00 28 1007.9
20260503204759 24 24 3.2 9.7 0.00 0.00 0.00 28 1007.8
20260503204257 24 284 6.4 11.3 0.00 0.00 0.00 27 1007.9
20260503203754 23 310 4.8 9.7 0.00 0.00 0.00 28 1007.9
20260503203251 23 228 3.2 6.4 0.00 0.00 0.00 28 1008.0
20260503202748 23 272 1.6 11.3 0.00 0.00 0.00 29 1008.2
20260503202246 23 269 3.2 12.9 0.00 0.00 0.00 30 1008.2
20260503201743 23 310 1.6 11.3 0.00 0.00 0.00 28 1008.2
20260503201241 24 222 8.0 12.9 0.00 0.00 0.00 27 1008.2
20260503200737 25 228 4.8 11.3 0.00 0.00 0.00 29 1008.1
20260503200233 24 212 1.6 11.3 0.00 0.00 0.00 30 1008.3
20260503195731 24 324 3.2 4.8 0.00 0.00 0.00 30 1008.1
20260503195227 24 281 8.0 12.9 0.00 0.00 0.00 29 1008.2
20260503194726 24 325 4.8 9.7 0.00 0.00 0.00 31 1008.4
20260503194220 24 325 9.7 14.5 0.00 0.00 0.00 29 1008.2
20260503193717 23 279 3.2 6.4 0.00 0.00 0.00 29 1008.4
20260503193213 23 338 4.8 6.4 0.00 0.00 0.00 30 1008.2
20260503192709 24 229 8.0 12.9 0.00 0.00 0.00 29 1008.5
20260503192204 23 297 6.4 12.9 0.00 0.00 0.00 31 1008.5
20260503191701 24 270 11.3 16.1 0.00 0.00 0.00 30 1008.5
20260503191158 23 308 3.2 11.3 0.00 0.00 0.00 31 1008.3
20260503190655 23 210 6.4 12.9 0.00 0.00 0.00 30 1008.4
20260503190152 23 199 1.6 3.2 0.00 0.00 0.00 33 1008.2
20260503185648 23 279 4.8 6.4 0.00 0.00 0.00 30 1008.5
20260503185144 23 207 3.2 6.4 0.00 0.00 0.00 31 1008.3
20260503184639 23 306 4.8 12.9 0.00 0.00 0.00 30 1008.7
20260503184136 23 247 3.2 6.4 0.00 0.00 0.00 30 1008.5
20260503183632 23 205 3.2 6.4 0.00 0.00 0.00 32 1008.5
20260503183130 23 344 8.0 14.5 0.00 0.00 0.00 31 1008.4
20260503182628 23 324 3.2 9.7 0.00 0.00 0.00 30 1008.6
20260503182126 23 219 11.3 16.1 0.00 0.00 0.00 30 1008.5
20260503181622 23 191 3.2 6.4 0.00 0.00 0.00 32 1008.5
20260503181119 22 275 1.6 9.7 0.00 0.00 0.00 33 1008.5
20260503180616 23 204 1.6 16.1 0.00 0.00 0.00 31 1008.7
20260503180114 23 287 6.4 14.5 0.00 0.00 0.00 32 1008.7
20260503175611 23 320 3.2 4.8 0.00 0.00 0.00 31 1008.5
20260503175108 23 245 4.8 11.3 0.00 0.00 0.00 32 1008.6
20260503174604 23 236 11.3 27.4 0.00 0.00 0.00 32 1008.4
20260503174101 23 307 3.2 12.9 0.00 0.00 0.00 33 1008.3